Weather History for Pellston, MI

Change the Weather History Date:

Sunday, July 21, 2013

  Actual Average Record
Temperature  
Mean Temperature 58 °F -  
Max Temperature 75 °F 79 °F 93 °F (1955)
Min Temperature 42 °F 53 °F 36 °F (1960)
Degree Days  
Heating Degree Days 6    
Growing Degree Days 8 (Base 50)    
Moisture  
Dew Point 50 °F    
Average Humidity 68    
Maximum Humidity 93    
Minimum Humidity 40    
Precipitation  
Precipitation 0.00 in - - ()
Sea Level Pressure  
Sea Level Pressure 30.03 in    
Wind  
Wind Speed 3 mph (ESE)    
Max Wind Speed 9 mph    
Max Gust Speed -    
Visibility 10 miles    
Events      
Averages and records for this station are not official NWS values.
T = Trace of Precipitation, MM = Missing Value Source: NWS Daily Summary

Daily Weather History Graph

Daily Weather History Graph

Search for Another Location

Airport:

Trip Planner

Search our weather history database for the weather conditions in past years. The results will help you decide how hot, cold, wet, or windy it might be!

Date:

Astronomy

Jul. 21, 2013 Rise Set
Actual Time 6:10 AM EDT 9:19 PM EDT
Civil Twilight 5:35 AM EDT 9:55 PM EDT
Nautical Twilight 4:49 AM EDT 10:41 PM EDT
Astronomical Twilight 3:52 AM EDT 11:37 PM EDT
Moon 8:14 PM EDT (7/21) 4:56 AM EDT (7/21)
Length of Visible Light 16h 19m
Length of Day
15h 08m
Waxing Gibbous, 98% of the Moon is Illuminated
Jul 21
Waxing Gibbous
Jul 22
Full
Jul 29
Last Quarter
Aug 6
New
Aug 14
First Quarter

Hourly Weather History & Observations

Time (EDT) Temp. Windchill Dew Point Humidity Pressure Visibility Wind Dir Wind Speed Gust Speed Precip Events Conditions
12:54 AM 46.0 °F - 44.1 °F 93% 30.03 in 10.0 mi Calm Calm - N/A   Clear
1:54 AM 45.0 °F 43.5 °F 43.0 °F 93% 30.03 in 10.0 mi WNW 3.5 mph - N/A   Clear
3:54 AM 45.0 °F - 43.0 °F 93% 30.04 in 10.0 mi Calm Calm - N/A   Clear
4:54 AM 43.0 °F - 41.0 °F 93% 30.03 in 10.0 mi Calm Calm - N/A   Clear
5:54 AM 42.1 °F - 39.9 °F 92% 30.04 in 10.0 mi Calm Calm - N/A   Clear
6:54 AM 44.1 °F - 42.1 °F 93% 30.05 in 10.0 mi Calm Calm - N/A   Clear
7:54 AM 51.1 °F - 48.9 °F 92% 30.05 in 10.0 mi Calm Calm - N/A   Clear
8:54 AM 59.0 °F - 54.0 °F 83% 30.06 in 10.0 mi Calm Calm - N/A   Clear
9:54 AM 63.0 °F - 54.0 °F 72% 30.06 in 10.0 mi SSE 6.9 mph - N/A   Scattered Clouds
10:07 AM 64.4 °F - 53.6 °F 68% 30.06 in 10.0 mi SE 8.1 mph - N/A   Mostly Cloudy
10:36 AM 64.4 °F - 53.6 °F 68% 30.06 in 10.0 mi SSW 5.8 mph - N/A   Mostly Cloudy
10:45 AM 64.4 °F - 53.6 °F 68% 30.06 in 10.0 mi South 5.8 mph - N/A   Mostly Cloudy
10:54 AM 66.0 °F - 54.0 °F 65% 30.06 in 10.0 mi Variable 4.6 mph - N/A   Mostly Cloudy
11:19 AM 66.2 °F - 51.8 °F 60% 30.06 in 10.0 mi Variable 4.6 mph - N/A   Mostly Cloudy
11:54 AM 69.1 °F - 50.0 °F 51% 30.06 in 10.0 mi SE 8.1 mph - N/A   Scattered Clouds
12:54 PM 72.0 °F - 48.9 °F 44% 30.05 in 10.0 mi SSW 5.8 mph - N/A   Partly Cloudy
1:54 PM 73.0 °F - 50.0 °F 44% 30.04 in 10.0 mi SE 4.6 mph - 0.00 in   Partly Cloudy
2:54 PM 75.0 °F - 48.9 °F 40% 30.02 in 10.0 mi Variable 4.6 mph - N/A   Partly Cloudy
3:54 PM 73.9 °F - 48.0 °F 40% 30.01 in 10.0 mi Calm Calm - N/A   Scattered Clouds
4:54 PM 75.0 °F - 55.0 °F 50% 30.01 in 10.0 mi NW 6.9 mph - N/A   Overcast
5:54 PM 73.9 °F - 55.0 °F 52% 29.98 in 10.0 mi East 8.1 mph - N/A   Mostly Cloudy
6:54 PM 72.0 °F - 55.0 °F 55% 29.97 in 10.0 mi NNE 9.2 mph - N/A   Clear
7:54 PM 69.1 °F - 55.0 °F 61% 29.97 in 10.0 mi NE 6.9 mph - N/A   Partly Cloudy
8:54 PM 68.0 °F - 53.1 °F 59% 29.98 in 10.0 mi East 5.8 mph - N/A   Overcast
9:54 PM 66.0 °F - 54.0 °F 65% 29.98 in 10.0 mi Calm Calm - N/A   Overcast
10:54 PM 66.0 °F - 54.0 °F 65% 29.98 in 10.0 mi ENE 4.6 mph - N/A   Overcast
11:54 PM 64.9 °F - 55.0 °F 70% 29.97 in 10.0 mi ESE 3.5 mph - N/A   Overcast